JST534 YMML-YSSY

Flight info

Callsign JST534
Flight time 1h 4m
Altitude 35000
Route ML H129 DOSEL Y59 RIVET
Aircraft A320/M-SDE3FGHIRWY/LB1

Departure

Time 2026-04-21 01:08
Airport Melbourne Airport (YMML)

Arrival

Time 2026-04-21 02:13
Airport Sydney Kingsford Smith International Airport (YSSY)
Time Latitude Longitude Altitude Speed Heading
2026-04-21 00:39 -37.67625 144.84752 377 ft 0 kts 351°
2026-04-21 00:58 -37.67634 144.84753 376 ft 4 kts 352°
2026-04-21 00:58 -37.67661 144.84758 375 ft 4 kts 352°
2026-04-21 00:58 -37.67688 144.84763 374 ft 4 kts 349°
2026-04-21 00:59 -37.67713 144.84771 373 ft 4 kts 330°
2026-04-21 00:59 -37.67727 144.84789 372 ft 3 kts 262°
2026-04-21 00:59 -37.67729 144.84768 372 ft 1 kts 261°
2026-04-21 00:59 -37.67733 144.84738 372 ft 4 kts 261°
2026-04-21 01:00 -37.67736 144.84710 371 ft 1 kts 261°
2026-04-21 01:01 -37.67736 144.84708 371 ft 1 kts 266°
2026-04-21 01:02 -37.67738 144.84679 371 ft 6 kts 263°
2026-04-21 01:02 -37.67760 144.84616 371 ft 8 kts 225°
2026-04-21 01:02 -37.67791 144.84595 367 ft 3 kts 203°
2026-04-21 01:02 -37.67819 144.84550 365 ft 8 kts 253°
2026-04-21 01:03 -37.67832 144.84468 364 ft 12 kts 260°
2026-04-21 01:03 -37.67898 144.84398 360 ft 19 kts 172°
2026-04-21 01:03 -37.68046 144.84428 359 ft 24 kts 172°
2026-04-21 01:03 -37.68218 144.84456 355 ft 23 kts 173°
2026-04-21 01:04 -37.68338 144.84468 354 ft 13 kts 192°
2026-04-21 01:04 -37.68421 144.84406 353 ft 16 kts 214°
2026-04-21 01:04 -37.68496 144.84342 348 ft 12 kts 214°
2026-04-21 01:04 -37.68552 144.84248 339 ft 13 kts 256°
2026-04-21 01:05 -37.68565 144.84138 343 ft 11 kts 263°
2026-04-21 01:05 -37.68523 144.84088 350 ft 8 kts 351°
2026-04-21 01:05 -37.68508 144.84085 345 ft 1 kts 352°
2026-04-21 01:05 -37.68506 144.84085 345 ft 0 kts 352°
2026-04-21 01:07 -37.68501 144.84084 350 ft 2 kts 353°
2026-04-21 01:07 -37.68395 144.84065 346 ft 32 kts 352°
2026-04-21 01:08 -37.67969 144.83985 353 ft 94 kts 351°
2026-04-21 01:08 -37.67143 144.83831 385 ft 143 kts 351°
2026-04-21 01:08 -37.66129 144.83616 846 ft 152 kts 351°
2026-04-21 01:08 -37.65059 144.83391 1470 ft 161 kts 350°
2026-04-21 01:09 -37.63917 144.83178 2220 ft 168 kts 352°
2026-04-21 01:09 -37.62729 144.82961 2812 ft 180 kts 350°
2026-04-21 01:09 -37.61395 144.82709 3226 ft 208 kts 350°
2026-04-21 01:09 -37.59872 144.82433 3686 ft 234 kts 353°
2026-04-21 01:10 -37.58199 144.82804 4296 ft 258 kts 22°
2026-04-21 01:10 -37.56555 144.83815 5218 ft 267 kts 24°
2026-04-21 01:10 -37.54890 144.84839 6173 ft 272 kts 23°
2026-04-21 01:10 -37.53177 144.85886 7138 ft 276 kts 23°
2026-04-21 01:11 -37.51432 144.86949 8029 ft 282 kts 24°
2026-04-21 01:11 -37.49649 144.88032 8916 ft 288 kts 25°
2026-04-21 01:11 -37.47823 144.89138 9802 ft 294 kts 25°
2026-04-21 01:11 -37.45959 144.90279 10539 ft 305 kts 27°
2026-04-21 01:12 -37.44119 144.91795 10857 ft 329 kts 39°
2026-04-21 01:12 -37.42446 144.93881 11225 ft 347 kts 51°
2026-04-21 01:12 -37.41025 144.96368 11883 ft 354 kts 56°
2026-04-21 01:12 -37.39617 144.98884 12639 ft 358 kts 56°
2026-04-21 01:13 -37.38165 145.01451 13398 ft 362 kts 56°
2026-04-21 01:13 -37.36697 145.04039 14173 ft 366 kts 56°
2026-04-21 01:13 -37.35211 145.06657 14832 ft 370 kts 56°
2026-04-21 01:13 -37.33711 145.09298 15486 ft 373 kts 56°
2026-04-21 01:14 -37.32192 145.11973 16124 ft 377 kts 56°
2026-04-21 01:14 -37.30663 145.14665 16770 ft 381 kts 56°
2026-04-21 01:14 -37.29113 145.17395 17414 ft 385 kts 57°
2026-04-21 01:14 -37.27553 145.20146 18043 ft 389 kts 57°
2026-04-21 01:15 -37.25974 145.22926 18686 ft 393 kts 57°
2026-04-21 01:15 -37.24403 145.25691 19266 ft 396 kts 57°
2026-04-21 01:15 -37.22797 145.28515 19879 ft 399 kts 57°
2026-04-21 01:15 -37.21174 145.31364 20480 ft 402 kts 56°
2026-04-21 01:16 -37.19540 145.34224 21060 ft 405 kts 56°
2026-04-21 01:16 -37.17890 145.37103 21621 ft 408 kts 56°
2026-04-21 01:16 -37.16228 145.40009 22179 ft 411 kts 56°
2026-04-21 01:16 -37.14559 145.42929 22726 ft 414 kts 56°
2026-04-21 01:17 -37.12878 145.45869 23272 ft 417 kts 56°
2026-04-21 01:17 -37.11179 145.48837 23804 ft 420 kts 56°
2026-04-21 01:17 -37.09471 145.51817 24268 ft 423 kts 56°
2026-04-21 01:17 -37.07747 145.54818 24700 ft 426 kts 56°
2026-04-21 01:18 -37.06032 145.57795 25120 ft 429 kts 56°
2026-04-21 01:18 -37.04277 145.60837 25537 ft 432 kts 56°
2026-04-21 01:18 -37.02511 145.63900 25956 ft 435 kts 55°
2026-04-21 01:18 -37.00733 145.66985 26374 ft 438 kts 55°
2026-04-21 01:19 -36.98949 145.70086 26779 ft 441 kts 55°
2026-04-21 01:19 -36.97151 145.73207 27178 ft 444 kts 55°
2026-04-21 01:19 -36.95337 145.76347 27571 ft 447 kts 55°
2026-04-21 01:19 -36.93508 145.79503 27977 ft 450 kts 55°
2026-04-21 01:20 -36.91663 145.82685 28347 ft 454 kts 55°
2026-04-21 01:20 -36.89828 145.85847 28736 ft 457 kts 55°
2026-04-21 01:20 -36.87955 145.89068 29150 ft 460 kts 55°
2026-04-21 01:20 -36.86068 145.92310 29553 ft 463 kts 55°
2026-04-21 01:21 -36.84173 145.95574 29936 ft 466 kts 55°
2026-04-21 01:21 -36.82261 145.98858 30325 ft 469 kts 55°
2026-04-21 01:21 -36.80335 146.02159 30659 ft 472 kts 54°
2026-04-21 01:21 -36.78400 146.05478 30999 ft 475 kts 55°
2026-04-21 01:22 -36.76447 146.08826 31297 ft 478 kts 55°
2026-04-21 01:22 -36.74483 146.12186 31613 ft 481 kts 55°
2026-04-21 01:22 -36.72538 146.15512 32057 ft 481 kts 54°
2026-04-21 01:22 -36.70567 146.18875 32543 ft 480 kts 55°
2026-04-21 01:23 -36.68603 146.22225 33022 ft 479 kts 55°
2026-04-21 01:23 -36.66636 146.25579 33499 ft 479 kts 54°
2026-04-21 01:23 -36.64675 146.28920 33977 ft 478 kts 54°
2026-04-21 01:23 -36.62708 146.32264 34458 ft 478 kts 54°
2026-04-21 01:24 -36.60747 146.35595 34860 ft 478 kts 55°
2026-04-21 01:24 -36.58782 146.38927 35237 ft 478 kts 55°
2026-04-21 01:24 -36.56812 146.42273 35371 ft 478 kts 55°
2026-04-21 01:24 -36.54849 146.45610 35402 ft 478 kts 55°
2026-04-21 01:25 -36.50946 146.52223 35397 ft 478 kts 54°
2026-04-21 01:25 -36.47008 146.58872 35397 ft 478 kts 54°
2026-04-21 01:26 -36.43066 146.65512 35396 ft 478 kts 54°
2026-04-21 01:26 -36.39112 146.72148 35396 ft 478 kts 54°
2026-04-21 01:27 -36.35165 146.78775 35391 ft 478 kts 54°
2026-04-21 01:27 -36.31242 146.85365 35401 ft 478 kts 54°
2026-04-21 01:28 -36.27281 146.91988 35399 ft 478 kts 54°
2026-04-21 01:28 -36.23317 146.98598 35398 ft 478 kts 54°
2026-04-21 01:29 -36.19352 147.05203 35397 ft 478 kts 54°
2026-04-21 01:29 -36.15374 147.11810 35409 ft 478 kts 54°
2026-04-21 01:30 -36.11420 147.18375 35393 ft 479 kts 54°
2026-04-21 01:30 -36.07435 147.24983 35388 ft 479 kts 54°
2026-04-21 01:31 -36.03445 147.31578 35393 ft 479 kts 54°
2026-04-21 01:31 -35.99449 147.38169 35404 ft 479 kts 54°
2026-04-21 01:32 -35.95476 147.44710 35393 ft 479 kts 54°
2026-04-21 01:32 -35.91476 147.51277 35388 ft 479 kts 54°
2026-04-21 01:33 -35.87473 147.57842 35386 ft 479 kts 54°
2026-04-21 01:33 -35.83463 147.64407 35391 ft 479 kts 54°
2026-04-21 01:34 -35.79482 147.70914 35382 ft 479 kts 54°
2026-04-21 01:34 -35.75466 147.77470 35389 ft 479 kts 54°
2026-04-21 01:35 -35.71447 147.84015 35385 ft 480 kts 54°
2026-04-21 01:35 -35.67415 147.90559 35385 ft 480 kts 54°
2026-04-21 01:36 -35.63393 147.97091 35381 ft 479 kts 54°
2026-04-21 01:36 -35.59392 148.03583 35384 ft 480 kts 54°
2026-04-21 01:37 -35.55348 148.10101 35384 ft 479 kts 54°
2026-04-21 01:37 -35.51303 148.16612 35380 ft 480 kts 54°
2026-04-21 01:38 -35.47253 148.23136 35385 ft 480 kts 54°
2026-04-21 01:38 -35.43203 148.29648 35387 ft 480 kts 54°
2026-04-21 01:39 -35.39176 148.36105 35388 ft 480 kts 54°
2026-04-21 01:39 -35.35115 148.42617 35384 ft 481 kts 54°
2026-04-21 01:40 -35.31045 148.49116 35398 ft 481 kts 54°
2026-04-21 01:40 -35.26971 148.55606 35392 ft 481 kts 54°
2026-04-21 01:41 -35.22895 148.62103 35400 ft 481 kts 54°
2026-04-21 01:41 -35.18845 148.68539 35397 ft 481 kts 54°
2026-04-21 01:42 -35.14757 148.75020 35403 ft 481 kts 54°
2026-04-21 01:42 -35.10658 148.81497 35399 ft 482 kts 54°
2026-04-21 01:43 -35.06563 148.87962 35394 ft 481 kts 54°
2026-04-21 01:43 -35.02493 148.94382 35403 ft 481 kts 54°
2026-04-21 01:44 -34.98392 149.00839 35400 ft 481 kts 54°
2026-04-21 01:44 -34.94289 149.07289 35403 ft 481 kts 54°
2026-04-21 01:45 -34.90180 149.13733 35398 ft 481 kts 54°
2026-04-21 01:45 -34.86094 149.20137 35404 ft 482 kts 54°
2026-04-21 01:46 -34.84009 149.23402 35124 ft 482 kts 54°
2026-04-21 01:46 -34.81975 149.26579 34706 ft 482 kts 54°
2026-04-21 01:46 -34.79913 149.29794 34241 ft 483 kts 54°
2026-04-21 01:46 -34.77847 149.33011 33698 ft 483 kts 54°
2026-04-21 01:47 -34.75774 149.36231 33166 ft 483 kts 54°
2026-04-21 01:47 -34.73821 149.39532 32648 ft 478 kts 61°
2026-04-21 01:47 -34.72232 149.43055 32141 ft 473 kts 65°
2026-04-21 01:47 -34.70710 149.46577 31635 ft 469 kts 65°
2026-04-21 01:48 -34.69192 149.50064 31141 ft 465 kts 65°
2026-04-21 01:48 -34.67676 149.53525 30661 ft 461 kts 65°
2026-04-21 01:48 -34.66175 149.56948 30137 ft 457 kts 65°
2026-04-21 01:48 -34.64706 149.60296 29609 ft 453 kts 65°
2026-04-21 01:49 -34.63234 149.63654 29024 ft 449 kts 65°
2026-04-21 01:49 -34.61774 149.66988 28437 ft 445 kts 65°
2026-04-21 01:49 -34.60327 149.70292 27859 ft 442 kts 65°
2026-04-21 01:49 -34.58889 149.73574 27295 ft 438 kts 65°
2026-04-21 01:50 -34.57461 149.76823 26753 ft 434 kts 65°
2026-04-21 01:50 -34.56046 149.80039 26213 ft 431 kts 65°
2026-04-21 01:50 -34.54639 149.83229 25682 ft 428 kts 65°
2026-04-21 01:50 -34.53240 149.86401 25160 ft 425 kts 65°
2026-04-21 01:51 -34.51852 149.89547 24663 ft 422 kts 65°
2026-04-21 01:51 -34.50489 149.92637 24168 ft 421 kts 65°
2026-04-21 01:51 -34.49113 149.95758 23613 ft 418 kts 65°
2026-04-21 01:51 -34.47742 149.98863 23026 ft 416 kts 65°
2026-04-21 01:52 -34.46377 150.01945 22448 ft 414 kts 65°
2026-04-21 01:52 -34.43667 150.08054 21328 ft 409 kts 65°
2026-04-21 01:52 -34.42323 150.11081 20787 ft 406 kts 65°
2026-04-21 01:53 -34.40991 150.14079 20278 ft 403 kts 65°
2026-04-21 01:53 -34.39670 150.17049 19774 ft 399 kts 65°
2026-04-21 01:53 -34.38358 150.19998 19292 ft 396 kts 65°
2026-04-21 01:53 -34.37061 150.22913 18807 ft 391 kts 65°
2026-04-21 01:54 -34.35793 150.25758 18279 ft 387 kts 65°
2026-04-21 01:54 -34.34520 150.28611 17726 ft 384 kts 64°
2026-04-21 01:54 -34.33257 150.31439 17181 ft 380 kts 64°
2026-04-21 01:54 -34.32009 150.34235 16644 ft 376 kts 64°
2026-04-21 01:55 -34.30774 150.36994 16183 ft 371 kts 64°
2026-04-21 01:55 -34.29555 150.39708 15742 ft 365 kts 64°
2026-04-21 01:55 -34.28350 150.42391 15302 ft 361 kts 64°
2026-04-21 01:55 -34.27161 150.45040 14870 ft 356 kts 64°
2026-04-21 01:56 -34.26005 150.47627 14455 ft 353 kts 65°
2026-04-21 01:56 -34.24845 150.50226 14015 ft 350 kts 64°
2026-04-21 01:56 -34.23693 150.52809 13541 ft 348 kts 64°
2026-04-21 01:56 -34.22546 150.55377 13061 ft 345 kts 65°
2026-04-21 01:57 -34.21414 150.57910 12607 ft 342 kts 63°
2026-04-21 01:57 -34.20280 150.60430 12152 ft 340 kts 64°
2026-04-21 01:57 -34.19534 150.62088 11865 ft 339 kts 64°
2026-04-21 01:57 -34.18414 150.64583 11419 ft 337 kts 64°
2026-04-21 01:58 -34.17299 150.67063 10982 ft 335 kts 64°
2026-04-21 01:58 -34.16198 150.69513 10665 ft 331 kts 64°
2026-04-21 01:58 -34.15103 150.71947 10389 ft 325 kts 64°
2026-04-21 01:58 -34.13725 150.74995 10054 ft 305 kts 64°
2026-04-21 01:59 -34.12723 150.77210 9885 ft 297 kts 66°
2026-04-21 01:59 -34.12055 150.78692 9720 ft 298 kts 65°
2026-04-21 01:59 -34.11081 150.80857 9345 ft 297 kts 64°
2026-04-21 01:59 -34.10098 150.83046 8980 ft 296 kts 66°
2026-04-21 02:00 -34.09125 150.85217 8712 ft 291 kts 64°
2026-04-21 02:00 -34.08169 150.87346 8461 ft 288 kts 66°
2026-04-21 02:00 -34.07218 150.89460 8205 ft 285 kts 64°
2026-04-21 02:00 -34.06270 150.91554 7963 ft 284 kts 66°
2026-04-21 02:01 -34.05327 150.93630 7712 ft 281 kts 64°
2026-04-21 02:01 -34.04391 150.95696 7459 ft 280 kts 65°
2026-04-21 02:01 -34.03479 150.97723 7214 ft 278 kts 65°
2026-04-21 02:01 -34.02557 150.99766 6991 ft 277 kts 64°
2026-04-21 02:02 -34.01327 151.01557 6713 ft 283 kts 39°
2026-04-21 02:02 -33.99527 151.02518 6422 ft 287 kts 11°
2026-04-21 02:02 -33.97530 151.02725 6159 ft 288 kts
2026-04-21 02:02 -33.95525 151.02813 5896 ft 287 kts
2026-04-21 02:03 -33.93541 151.02886 5545 ft 287 kts
2026-04-21 02:03 -33.90908 151.02979 5113 ft 284 kts
2026-04-21 02:03 -33.89563 151.03024 4891 ft 285 kts
2026-04-21 02:03 -33.87595 151.03094 4594 ft 283 kts
2026-04-21 02:04 -33.85655 151.03163 4258 ft 282 kts
2026-04-21 02:04 -33.83703 151.03234 4023 ft 277 kts
2026-04-21 02:04 -33.81802 151.03300 4002 ft 270 kts
2026-04-21 02:04 -33.79960 151.03370 4011 ft 261 kts
2026-04-21 02:05 -33.78143 151.03287 4006 ft 262 kts 355°
2026-04-21 02:05 -33.76369 151.03027 3998 ft 247 kts 353°
2026-04-21 02:05 -33.74694 151.02756 3995 ft 241 kts 353°
2026-04-21 02:05 -33.73036 151.02716 3997 ft 237 kts 15°
2026-04-21 02:06 -33.71614 151.03593 3772 ft 227 kts 49°
2026-04-21 02:06 -33.70861 151.05148 3463 ft 216 kts 84°
2026-04-21 02:06 -33.70662 151.06936 3080 ft 216 kts 92°
2026-04-21 02:06 -33.70745 151.08693 2983 ft 208 kts 115°
2026-04-21 02:07 -33.71573 151.10036 3000 ft 199 kts 146°
2026-04-21 02:07 -33.72731 151.10952 2988 ft 199 kts 152°
2026-04-21 02:07 -33.73889 151.11767 2989 ft 187 kts 152°
2026-04-21 02:07 -33.75018 151.12538 2985 ft 185 kts 158°
2026-04-21 02:08 -33.76260 151.12869 3015 ft 183 kts 171°
2026-04-21 02:08 -33.77492 151.13164 2993 ft 183 kts 168°
2026-04-21 02:08 -33.78744 151.13485 2861 ft 184 kts 169°
2026-04-21 02:08 -33.79986 151.13807 2655 ft 180 kts 168°
2026-04-21 02:09 -33.81164 151.14113 2429 ft 165 kts 168°
2026-04-21 02:09 -33.82233 151.14389 2219 ft 149 kts 169°
2026-04-21 02:09 -33.83197 151.14639 2016 ft 134 kts 169°
2026-04-21 02:09 -33.84075 151.14866 1838 ft 127 kts 171°
2026-04-21 02:10 -33.84942 151.15090 1667 ft 125 kts 171°
2026-04-21 02:10 -33.85786 151.15307 1497 ft 126 kts 168°
2026-04-21 02:10 -33.86624 151.15524 1341 ft 124 kts 168°
2026-04-21 02:10 -33.87464 151.15742 1175 ft 123 kts 171°
2026-04-21 02:11 -33.88288 151.15955 1013 ft 123 kts 169°
2026-04-21 02:11 -33.89124 151.16172 841 ft 125 kts 170°
2026-04-21 02:11 -33.89972 151.16391 685 ft 125 kts 170°
2026-04-21 02:11 -33.90799 151.16605 500 ft 120 kts 169°
2026-04-21 02:12 -33.91637 151.16822 332 ft 125 kts 172°
2026-04-21 02:12 -33.92483 151.17050 164 ft 124 kts 172°
2026-04-21 02:12 -33.93320 151.17261 38 ft 117 kts 171°
2026-04-21 02:12 -33.93984 151.17429 26 ft 74 kts 167°
2026-04-21 02:13 -33.94314 151.17541 30 ft 36 kts 153°
2026-04-21 02:13 -33.94444 151.17641 30 ft 12 kts 144°
2026-04-21 02:13 -33.94458 151.17653 30 ft 0 kts 144°
2026-04-21 02:14 -33.94460 151.17655 30 ft 2 kts 144°
2026-04-21 02:14 -33.94464 151.17658 30 ft 0 kts 144°
2026-04-21 02:15 -33.94464 151.17659 30 ft 0 kts 144°
2026-04-21 02:16 -33.94489 151.17680 30 ft 10 kts 142°
2026-04-21 02:16 -33.94510 151.17759 30 ft 12 kts 63°
2026-04-21 02:16 -33.94419 151.17762 30 ft 16 kts 346°
2026-04-21 02:16 -33.94289 151.17722 30 ft 22 kts 345°
2026-04-21 02:17 -33.94130 151.17672 29 ft 25 kts 346°
2026-04-21 02:17 -33.93960 151.17627 29 ft 17 kts 348°
2026-04-21 02:17 -33.93870 151.17652 29 ft 10 kts 56°
2026-04-21 02:17 -33.93846 151.17713 30 ft 9 kts 70°
2026-04-21 02:18 -33.93784 151.17771 30 ft 15 kts 15°
2026-04-21 02:18 -33.93670 151.17804 30 ft 18 kts 13°
2026-04-21 02:18 -33.93565 151.17830 30 ft 7 kts 11°
2026-04-21 02:18 -33.93561 151.17830 30 ft 0 kts
2026-04-21 02:19 -33.93559 151.17826 30 ft 1 kts 322°
2026-04-21 02:19 -33.93564 151.17811 30 ft 4 kts 255°
2026-04-21 02:19 -33.93565 151.17772 30 ft 4 kts 277°
2026-04-21 02:19 -33.93563 151.17760 30 ft 0 kts 279°